Find Starlink 30150

NORAD ID: 57621 Int'l Des: 2023-119 Owner: SPXS Country: US Constellation: starlink operational
LEOCIRCULAR

現在のビュー

3D地球を読み込み中...

About Starlink 30150

Starlink 30150 (NORAD 57621) is a starlink constellation satellite (v2 mini) launched Aug 11, 2023 by SPXS of US. It operates in LEO, CIRCULAR orbit with a mass of 730.00 kg.

Starlink 30150について

説明を読み込み中...

次回通過

Passes for default location (London). Set your location on the main map for personalized predictions.

高度履歴

Loading altitude history...

軌道要素

1 57621U 23119V 26170.53171407 .00000312 00000-0 20853-4 0 9999
2 57621 43.0022 226.2783 0001192 276.5798 83.4918 15.27575831158664
Epoch: Jun 19, 2026 • Age: 14 hours

現在のステータス

高度 494.5 km
速度 7.62 km/s
衛星直下点 -40.35°S, 163.57°E
打ち上げ日 Aug 11, 2023
運用期間 2.8 years
タイプ internet

技術仕様

分類 Payload
質量 730.00 kg
乾燥質量 700.00 kg
総質量 730.00 kg
長さ 0.30 m
直径 4.10 m
スパン 29.00 m
形状 Box + pan
製造者 SPXS
バスタイプ Starlink V2M
フェーズステータス In Orbit
所有者/国 SPXS/US

Most Searched